Regional Weather Roundup
Issued by NWS Charleston, SC

Current Version | Previous Version | Text Only | Print | Product List | Glossary On
Versions: 1 2 3 4 5 6 7 8 9 10 11 12 13 14 15 16 17 18 19 20 21 22 23 24 25 26 27 28 29 30 31 32 33 34 35 36 37 38 39 40 41 42 43 44 45 46 47 48 49 50
000 ASUS42 KCHS 281426 RWRCHS REGIONAL WEATHER ROUNDUP NATIONAL WEATHER SERVICE CHARLESTON SC 1000 AM EDT SAT MAR 28 2015 NOTE: "FAIR" INDICATES FEW OR NO CLOUDS BELOW 12,000 FEET WITH NO SIGNIFICANT WEATHER AND/OR OBSTRUCTIONS TO VISIBILITY. NOT ALL STATIONS ARE QUALITY CONTROLLED BY THE NATIONAL WEATHER SERVICE. USE DATA WITH CAUTION...ESPECIALLY DEWPOINT OBSERVATIONS. SCZ027-030-031-034>040-042>050-281500- ...SOUTHEAST SOUTH CAROLINA... CITY SKY/WX TMP DP RH WIND PRES REMARKS N CHARLESTON MOSUNNY 50 37 61 NW13 30.05R WATERFRONT PRK N/A 50 N/A N/A NW7G14 N/A MOUNT PLEASANT LGT RAIN 48 39 71 NW9 30.06R PINOPOLIS N/A 50 39 66 NW8 29.95R MONCKS CORNER PTSUNNY 52 37 58 N5 30.05S SUMMERVILLE FAIR 50 36 57 NW5 30.08R BEAUFORT MCAS SUNNY 49 35 58 NW13 30.08R BEAUFORT ARPT FAIR 50 37 62 NW6 30.09R HILTON HEAD IS SUNNY 48 34 57 NW12G20 30.09R WALTERBORO SUNNY 46 32 57 NW8 30.09R ALLENDALE FAIR 48 30 49 NW9 30.09R ...SOUTHERN MIDLANDS AND PEE DEE... CITY SKY/WX TMP DP RH WIND PRES REMARKS GEORGETOWN NOT AVBL KINGSTREE NOT AVBL ORANGEBURG SUNNY 47 28 47 NW7 30.07R BARNWELL FAIR 48 34 57 W7 30.10R AIKEN FAIR 43 30 61 NW7 30.11R MANNING FAIR 45 32 61 NW7 30.06R COLUMBIA SUNNY 46 24 42 N9 30.07R SUMTER SUNNY 46 31 56 NW12 30.04R FLORENCE MOSUNNY 46 31 55 N12 30.04R MYRTLE BEACH PTSUNNY 46 36 66 N16 30.05R N MYRTLE BEACH MOSUNNY 47 35 63 N8G16 30.02R $$ GAZ063-065-086>088-099>101-113>116-118-119-134>141-150-281500- ...SOUTHEAST GEORGIA... CITY SKY/WX TMP DP RH WIND PRES REMARKS SAVANNAH ARPT SUNNY 49 29 46 NW15G23 30.11R HUNTER AAF SUNNY 50 33 52 NW14 30.09R FORT STEWART SUNNY 50 31 47 NW15 30.11R STATESBORO SUNNY 48 31 50 NW13 30.12R SYLVANIA SUNNY 48 29 48 N12G21 30.12R CLAXTON FAIR 50 34 53 NW12 30.13R ...CSRA...CENTRAL AND FAR SOUTHEAST GEORGIA... CITY SKY/WX TMP DP RH WIND PRES REMARKS THOMSON SUNNY 46 28 50 NW10G17 30.15R AUGUSTA-BUSH SUNNY 46 27 47 NW14 30.11R AUGUSTA-DANIEL SUNNY 46 24 42 NW10 30.10R SWAINSBORO FAIR 48 18 29 NW9G20 30.13R VIDALIA SUNNY 46 34 61 NW10 30.14R EASTMAN FAIR 47 36 65 NW7 30.19R HAZLEHURST FAIR 48 36 61 NW10 30.14S ALMA SUNNY 48 34 58 NW9 30.15R WAYCROSS SUNNY 53 38 57 N10 30.16R JESUP FAIR 52 37 58 N9 30.14S BAXLEY FAIR 50 32 50 N9 30.14S BRUNSWICK SUNNY 52 32 46 NW8G18 30.15R SAINT SIMONS SUNNY 50 32 50 W10 30.14R $$ SCZ027-028-034-036>038-045-046-048>050-GAZ119-141-281500- ...LAKE AND SUPPLEMENTAL COASTAL OBSERVATIONS... STATION/POSITION TIME TEMP WIND PRES WAVE SWELL AIR SEA DIR/SP/G HT/PER HT/PER/DIR (UTC) (F) (DEG/KT/KT) (MB) (FT/S) (FT/S/D) UPR LAKE MARION NOT AVBL WINYAH BAY 1345 47 340/ 8 1016.0R LAKE MURRAY 1400 43 340/ 3/ 11 1017.9R ACE BASIN NERRS 1300 330/ 3 1015.0 FORT PULASKI 1400 48 61 320/ 13/ 15 1019.7R SAPELO ISLAND 1400 51 300/ 11 1020.0R $$ ANZ835-935-AMZ111-154-330-350-352-354-370-450-454-472-281500- ...C-MAN AND BUOY OBSERVATIONS... STATION/POSITION TIME TEMP WIND PRES WAVE SWELL AIR SEA DIR/SP/G HT/PER HT/PER/DIR (UTC) (F) (DEG/KT/KT) (MB) (FT/S) (FT/S/D) BUOY 41004 1350 51 68 310/ 16/ 19 1016.5R 5/ 7 2/ 8 BUOY 41008 1350 49 60 310/ 14/ 17 1019.7R 3/ 4 2/ 90/ 8 FOLLY BEACH CMAN 1400 50 340/ 6/ 9 1017.7R CAPERS NEARSHORE 1300 49 330/ 14/ 17 N/A FRIPP NEARSHORE 1300 49 330/ 17/ 19 1017.3R STATION/POSITION TIME TEMP WIND PRES WAVE SWELL AIR SEA DIR/SP/G HT/PER HT/PER/DIR (UTC) (F) (DEG/KT/KT) (MB) (FT/S) (FT/S/D) 5E ST. MARYS GA 1321 61 N/A 3/ 3 FRYING PAN BUOY 1350 49 64 340/ 16/ 19 1015.9R 5/ 5 3/150/ 8 BUOY 41025 NOT AVBL CAPE LOOKOUT NC 1400 44 340/ 14/ 15 1015.1R BUOY 41002 1350 62 68 290/ 27/ 33 1013.2R 14/ 9 BUOY 41010 1320 65 75 300/ 21/ 29 1017.0R ST AUGUSTINE FL 1400 52 59 320/ 12/ 14 1021.2R $$

USA.gov is the U.S. government's official web portal to all federal, state and local government web resources and services.